Location: *
(13.2257°S, 48.7193°W)
Time: 04:04:58
(UTC+00:00)

Cosmos 1782 Rocket - Visible Passes

Search period start: 14 May 2026 00:00
Search period end: 24 May 2026 00:00
Orbit: 600 x 624 km, 82.5° (Epoch: 13 May)

Date Brightness Start Highest point End Pass type
(mag) Time Alt. Az. Time Alt. Az. Time Alt. Az.
14 May 5.3 21:20:04 10° SSW 21:24:02 36° W 21:27:59 10° NNW visible
15 May 6.6 21:36:12 10° SW 21:39:06 18° W 21:42:00 10° NW visible
16 May 6.3 08:13:10 10° NE 08:16:29 21° E 08:19:49 10° SE visible
17 May 4.9 08:27:23 10° NNE 08:31:34 43° E 08:35:46 10° SSE visible
18 May 3.5 08:42:16 10° N 08:46:42 87° W 08:51:07 10° S visible
19 May 4.0 08:57:43 10° NNW 09:01:50 40° W 09:05:59 10° SSW visible
20 May 6.4 07:36:42 10° NE 07:39:36 17° E 07:42:29 10° SE visible
20 May 7.3 21:16:47 10° W 21:17:15 10° W 21:17:43 10° W visible
21 May 5.2 07:50:40 10° NNE 07:54:40 35° E 07:58:41 10° SSE visible
22 May 3.7 08:05:23 10° N 08:09:46 77° E 08:14:11 10° S visible
23 May 3.7 08:20:41 10° NNW 08:24:55 49° W 08:29:11 10° S visible
